Location: Winter Haven
(28.0220°N, 81.7330°W)
Time: 08:10:42
(UTC-04:00)

Amateur Radio Satellites - All Passes

Search period start: 30 July 2015 07:40
Search period end: 31 July 2015 07:40
Location: Winter Haven, 28.0220°N, 81.7330°W

Satellite Date Start Highest point End Downlink Frequencies (MHz)
Time Altitude Azimuth
CUTE-I 30 Jul 07:42:26 07:47:45 82° 101° (E) 07:53:04 437.470
GONETS M04 30 Jul 07:47:47 07:56:19 56° 279° (W) 08:04:46
CUBESAT XI-V 30 Jul 07:50:20 07:54:13 25° 264° (W) 07:57:59 437.345
RS-15 30 Jul 07:50:54 08:02:36 61° 59° (ENE) 08:14:42 29.354- 29.394
PRISM 30 Jul 08:19:01 08:23:03 46° 260° (W) 08:27:06 437.425
Cubesat XI-IV 30 Jul 08:26:11 08:31:00 35° 287° (WNW) 08:35:44 437.490
HO-68 30 Jul 08:31:08 08:33:22 12° 91° (E) 08:36:17 435.675
BRITE-PL 30 Jul 08:33:26 08:37:20 30° 98° (E) 08:41:34 437.365/2234.400
SRMSAT 30 Jul 08:38:03 08:43:29 38° 180° (S) 08:48:55 437.500
JUGNU 30 Jul 08:39:40 08:44:46 30° 190° (S) 08:49:50 437.505
GOMX 1 30 Jul 08:55:55 09:00:00 32° 98° (E) 09:04:24 467.674
CANX-2 30 Jul 08:56:02 08:58:07 14° 93° (E) 09:00:26 2200.000
DOVE 4 30 Jul 08:56:22 08:59:36 19° 95° (E) 09:03:09 437.250
STRAND 1 30 Jul 09:03:26 09:06:42 16° 266° (W) 09:09:44 437.568
Cosmos 2499 30 Jul 09:07:44 09:14:54 70° 277° (W) 09:22:34 435.465 / 435.565
BEESAT 3 30 Jul 09:13:39 09:14:26 11° 51° (NE) 09:15:26 437.485
AAUSAT CUBESAT 2 30 Jul 09:21:40 09:23:07 12° 92° (E) 09:24:52 437.432
M-CUBED/EXP-1 PRIME 30 Jul 09:21:47 09:24:30 19° 66° (ENE) 09:27:29 437.505
CINEMA 3 30 Jul 09:22:56 09:25:41 16° 94° (E) 09:28:45 145.822/145.860
SO-50 30 Jul 09:45:50 09:50:12 42° 113° (ESE) 09:54:45 436.795
PCSat 30 Jul 09:50:40 09:56:00 69° 112° (ESE) 10:01:24 145.827
AUBIESAT-1 30 Jul 09:52:22 09:55:57 39° 70° (ENE) 09:59:52 437.475
UWE-3 30 Jul 09:58:49 10:00:44 13° 92° (E) 10:02:59 435.000/436.395/437.385
RS-15 30 Jul 10:04:26 10:14:40 32° 253° (WSW) 10:24:36 29.354- 29.394
BEESAT 2 30 Jul 10:05:52 10:09:31 33° 59° (ENE) 10:13:09 435.950
CUBEBUG 2 30 Jul 10:08:09 10:11:47 23° 95° (E) 10:15:35 437.445
COMPASS 1 30 Jul 10:11:20 10:15:32 71° 101° (E) 10:19:43 437.405
BRITE-PL 30 Jul 10:12:43 10:15:45 18° 286° (WNW) 10:18:44 437.365/2234.400
HO-68 30 Jul 10:14:42 10:21:54 83° 285° (WNW) 10:29:05 435.675
Oscar 11 30 Jul 10:18:03 10:21:42 27° 96° (E) 10:25:24 145.826/435.025
TIGRISAT 30 Jul 10:18:28 10:19:52 12° 70° (ENE) 10:21:33 435.000
ANTELSAT 30 Jul 10:18:55 10:20:40 13° 70° (ENE) 10:22:41 437.575/2403.000
CUTE 1.7 + AOD 2 30 Jul 10:22:01 10:26:10 48° 284° (WNW) 10:30:16 437.475
SEEDS 30 Jul 10:22:41 10:26:54 61° 283° (WNW) 10:31:04 437.485
SRMSAT 30 Jul 10:27:10 10:32:18 31° 190° (S) 10:37:26 437.500
JUGNU 30 Jul 10:29:43 10:33:21 17° 198° (SSW) 10:36:51 437.505
CANX-2 30 Jul 10:30:16 10:34:10 33° 285° (WNW) 10:37:59 2200.000
DOVE 4 30 Jul 10:33:14 10:37:21 31° 285° (WNW) 10:41:38 437.250
GOMX 1 30 Jul 10:34:49 10:38:00 18° 286° (WNW) 10:41:07 467.674
HUMSAT D 30 Jul 10:45:30 10:46:54 12° 92° (E) 10:48:35 437.325/437.525
BEESAT 3 30 Jul 10:48:49 10:52:40 46° 247° (WSW) 10:56:27 437.485
AAUSAT CUBESAT 2 30 Jul 10:55:02 10:58:54 36° 285° (WNW) 11:02:42 437.432
M-CUBED/EXP-1 PRIME 30 Jul 10:56:11 10:59:10 22° 262° (W) 11:02:16 437.505
DELFI C3 30 Jul 10:56:17 11:00:15 53° 100° (E) 11:04:11 145.870
CINEMA 3 30 Jul 10:58:35 11:02:58 38° 285° (WNW) 11:07:27 145.822/145.860
UNISAT 6 30 Jul 11:07:49 11:11:59 53° 76° (ENE) 11:16:16 437.425
ZACube-1 30 Jul 11:13:56 11:18:30 83° 100° (E) 11:23:06 437.345
AIST 2 30 Jul 11:23:46 11:27:51 54° 62° (ENE) 11:31:51 435.215
SO-50 30 Jul 11:27:53 11:30:59 17° 308° (NW) 11:33:58 436.795
POLYITAN 1 30 Jul 11:28:42 11:32:25 32° 75° (ENE) 11:36:12 437.675
YUBILEINY 30 Jul 11:30:31 11:36:42 22° 72° (ENE) 11:43:20 435.215
UWE-3 30 Jul 11:33:04 11:37:27 43° 285° (WNW) 11:41:51 435.000/436.395/437.385
FUNcube-1 30 Jul 11:36:45 11:41:11 53° 284° (WNW) 11:45:38 145.935
PCSat 30 Jul 11:37:38 11:40:01 12° 308° (NW) 11:42:04 145.827
CUBEBUG 2 30 Jul 11:44:32 11:48:24 25° 286° (WNW) 11:52:11 437.445
BEESAT 2 30 Jul 11:45:19 11:47:17 13° 250° (WSW) 11:49:02 435.950
POPSAT HIP 1 30 Jul 11:46:16 11:50:21 54° 76° (ENE) 11:54:27 437.405
AISAT 30 Jul 11:46:26 11:50:03 26° 97° (E) 11:53:47 437.250
O/OREOS (USA 219) 30 Jul 11:51:34 11:52:52 11° 60° (ENE) 11:54:29 437.305
TIGRISAT 30 Jul 11:52:14 11:56:17 41° 261° (W) 12:00:23 435.000
ANTELSAT 30 Jul 11:53:07 11:57:08 38° 262° (W) 12:01:12 437.575/2403.000
QB50P2 30 Jul 11:53:16 11:57:26 72° 78° (ENE) 12:01:38 145.880/145.840
UKube-1 30 Jul 11:54:33 11:58:46 53° 100° (E) 12:02:59 .
Oscar 11 30 Jul 11:54:40 11:57:43 18° 288° (WNW) 12:00:36 145.826/435.025
Cosmos 2491 30 Jul 11:55:54 12:01:28 20° 86° (E) 12:07:32 435.465 / 435.565
BUGSAT 1 30 Jul 12:01:55 12:05:51 49° 76° (ENE) 12:09:47 437.445
HO-68 30 Jul 12:06:47 12:08:48 11° 298° (WNW) 12:10:15 435.675
CUBEBUG 1 30 Jul 12:07:28 12:10:54 24° 96° (E) 12:14:25 437.445
SRMSAT 30 Jul 12:17:19 12:21:03 17° 197° (SSW) 12:24:42 437.500
HUMSAT D 30 Jul 12:18:46 12:22:49 40° 285° (WNW) 12:26:51 437.325/437.525
DX 1 30 Jul 12:19:15 12:23:33 64° 284° (WNW) 12:27:50 434.975-435.025
DUCHIFAT 1 30 Jul 12:20:24 12:24:29 52° 260° (W) 12:28:33 145.980
QB50P1 30 Jul 12:22:04 12:26:07 47° 260° (W) 12:30:10 145.935-145.965
NANOSAT C BR1 30 Jul 12:24:12 12:28:13 45° 261° (W) 12:32:15 145.865
VELOX 1 30 Jul 12:25:30 12:29:55 79° 102° (ESE) 12:34:19 145.980
ESTCUBE 1 30 Jul 12:28:46 12:33:11 56° 100° (E) 12:37:35 437.505/2401.250
50 SAT 30 Jul 12:38:31 12:42:23 48° 283° (WNW) 12:46:11 437.505
SPROUT 30 Jul 12:51:45 12:54:58 21° 95° (E) 12:58:19 437.525
POLYITAN 1 30 Jul 13:06:14 13:08:26 13° 267° (W) 13:10:23 437.675
Oscar 19 30 Jul 13:10:36 13:13:32 16° 70° (ENE) 13:16:43 437.125/150
AIST 1 30 Jul 13:11:31 13:15:53 70° 276° (W) 13:20:13
TISAT 1 30 Jul 13:11:51 13:15:02 21° 96° (E) 13:18:19 437.305
AISAT 30 Jul 13:23:15 13:26:30 20° 288° (WNW) 13:29:35 437.250
YUBILEINY 30 Jul 13:25:29 13:34:08 61° 268° (W) 13:42:45 435.215
O/OREOS (USA 219) 30 Jul 13:28:12 13:32:39 49° 255° (WSW) 13:37:04 437.305
CUBEBUG 1 30 Jul 13:43:54 13:47:08 20° 287° (WNW) 13:50:14 437.445
Cosmos 2491 30 Jul 13:49:02 13:57:45 64° 278° (W) 14:06:24 435.465 / 435.565
Gurwin Techsat 1B 30 Jul 13:54:31 13:56:22 12° 68° (ENE) 13:58:33 435.225
ITAMSAT 1 30 Jul 14:25:58 14:30:01 24° 71° (ENE) 14:34:13 435.822/435.867
BEESAT 30 Jul 14:27:23 14:31:11 24° 96° (E) 14:35:06 436.000
SPROUT 30 Jul 14:27:36 14:30:59 22° 287° (WNW) 14:34:15 437.525
JAS-2 30 Jul 14:33:31 14:34:20 10° 63° (ENE) 14:35:39 435.910
SWISSCUBE 30 Jul 14:47:02 14:51:36 46° 100° (E) 14:56:09 437.505
TISAT 1 30 Jul 14:47:28 14:50:42 21° 287° (WNW) 14:53:50 437.305
Oscar 19 30 Jul 14:47:45 14:52:35 43° 261° (W) 14:57:26 437.125/150
Cosmos 2504 30 Jul 15:03:15 15:11:45 73° 83° (E) 15:20:21 435.465 / 435.565
ITUPSAT 1 30 Jul 15:06:52 15:11:38 71° 102° (ESE) 15:16:22 437.325
AO-7 30 Jul 15:15:37 15:21:15 21° 63° (ENE) 15:27:17 29.400- 29.500
Gurwin Techsat 1B 30 Jul 15:30:40 15:35:54 61° 259° (W) 15:41:10 435.225
HORYU 2 30 Jul 15:48:55 15:51:53 18° 72° (ENE) 15:55:01 437.375
KKS-1 30 Jul 15:50:43 15:54:38 30° 98° (E) 15:58:36 437.445
DANDE 30 Jul 15:55:41 15:58:39 19° 82° (E) 16:02:25 436.750
ITAMSAT 1 30 Jul 16:04:50 16:09:24 29° 263° (W) 16:13:52 435.822/435.867
BEESAT 30 Jul 16:05:05 16:08:57 24° 288° (WNW) 16:12:41 436.000
JAS-2 30 Jul 16:12:46 16:18:27 84° 257° (WSW) 16:24:58 435.910
SWISSCUBE 30 Jul 16:26:48 16:29:06 13° 290° (WNW) 16:31:07 437.505
CUSAT 1 30 Jul 16:28:17 16:32:47 84° 85° (E) 16:38:49 437.405
Cosmos 2504 30 Jul 16:57:53 17:03:20 18° 275° (W) 17:08:16 435.465 / 435.565
STARS 30 Jul 17:04:42 17:09:01 54° 284° (WNW) 17:13:20 437.465
AO-7 30 Jul 17:05:08 17:13:27 68° 256° (WSW) 17:21:47 29.400- 29.500
HORYU 2 30 Jul 17:24:31 17:28:20 28° 263° (W) 17:32:07 437.375
KKS-1 30 Jul 17:28:06 17:31:03 17° 289° (WNW) 17:33:50 437.445
DANDE 30 Jul 17:38:08 17:41:38 24° 262° (W) 17:45:53 436.750
VERMONT LUNAR 30 Jul 17:40:32 17:42:48 19° 141° (SE) 17:45:08 437.305
Cubesat XI-IV 30 Jul 18:02:48 18:06:14 18° 70° (ENE) 18:09:54 437.490
MOZHAYETS 4 30 Jul 18:03:58 18:08:34 68° 284° (WNW) 18:13:07
GONETS M04 30 Jul 18:06:26 18:14:53 55° 80° (E) 18:23:26
PCSat 30 Jul 18:47:37 18:50:09 14° 53° (NE) 18:52:58 145.827
CUTE-I 30 Jul 18:57:13 19:02:31 68° 76° (ENE) 19:07:52 437.470
PHONESAT 2.4 30 Jul 19:03:32 19:04:13 11° 139° (SE) 19:05:04 2401.200-2431.200
Cosmos 2499 30 Jul 19:06:49 19:14:13 31° 75° (ENE) 19:21:54 435.465 / 435.565
VERMONT LUNAR 30 Jul 19:16:21 19:19:23 42° 332° (NNW) 19:22:26 437.305
BRITE-PL 30 Jul 19:39:15 19:41:56 16° 74° (ENE) 19:44:44 437.365/2234.400
STRAND 1 30 Jul 19:40:34 19:44:39 25° 96° (E) 19:48:51 437.568
Cubesat XI-IV 30 Jul 19:40:59 19:46:04 42° 261° (W) 19:51:07 437.490
CUBESAT XI-V 30 Jul 19:53:07 19:57:38 55° 283° (WNW) 20:02:05 437.345
GOMX 1 30 Jul 19:59:31 20:01:44 14° 73° (ENE) 20:04:08 467.674
SO-50 30 Jul 20:03:58 20:08:53 77° 62° (ENE) 20:13:39 436.795
GONETS M04 30 Jul 20:04:37 20:11:18 24° 273° (W) 20:17:36
RS-15 30 Jul 20:04:49 20:04:51 10° 103° (ESE) 20:06:20 29.354- 29.394
PRISM 30 Jul 20:08:09 20:11:59 39° 99° (E) 20:15:49 437.425
PCSat 30 Jul 20:28:42 20:34:04 63° 249° (WSW) 20:39:23 145.827
HO-68 30 Jul 20:35:58 20:42:17 37° 70° (ENE) 20:48:45 435.675
PHONESAT 2.4 30 Jul 20:38:24 20:41:54 86° 328° (NNW) 20:45:25 2401.200-2431.200
ISS 30 Jul 20:40:30 20:42:50 19° 127° (SE) 20:45:15 145.825
VERMONT LUNAR 30 Jul 20:55:22 20:56:41 12° 347° (NNW) 20:57:57 437.305
COMPASS 1 30 Jul 20:56:32 20:59:30 19° 73° (ENE) 21:02:35 437.405
Cosmos 2499 30 Jul 20:59:15 21:07:34 47° 269° (W) 21:15:47 435.465 / 435.565
CUTE 1.7 + AOD 2 30 Jul 21:07:40 21:11:43 46° 76° (ENE) 21:15:50 437.475
SEEDS 30 Jul 21:07:47 21:11:38 35° 75° (ENE) 21:15:32 437.485
CANX-2 30 Jul 21:15:36 21:19:49 68° 77° (ENE) 21:24:04 2200.000
BRITE-PL 30 Jul 21:16:14 21:20:20 30° 262° (W) 21:24:10 437.365/2234.400
STRAND 1 30 Jul 21:19:32 21:23:49 27° 288° (WNW) 21:27:57 437.568
DOVE 4 30 Jul 21:32:02 21:36:14 63° 259° (W) 21:40:21 437.250
GOMX 1 30 Jul 21:35:48 21:39:44 31° 262° (W) 21:43:27 467.674
AAUSAT CUBESAT 2 30 Jul 21:38:14 21:42:19 56° 77° (ENE) 21:46:28 437.432
DELFI C3 30 Jul 21:38:26 21:40:15 13° 72° (ENE) 21:42:17 145.870
PRISM 30 Jul 21:45:50 21:47:06 11° 290° (WNW) 21:48:06 437.425
CINEMA 3 30 Jul 21:53:32 21:57:40 89° 82° (E) 22:01:50 145.822/145.860
ZACube-1 30 Jul 22:03:50 22:07:13 25° 74° (ENE) 22:10:43 437.345
RS-15 30 Jul 22:05:14 22:16:01 76° 114° (ESE) 22:27:07 29.354- 29.394
ISS 30 Jul 22:16:30 22:19:10 23° 319° (NW) 22:21:49 145.825
PHONESAT 2.4 30 Jul 22:17:42 22:20:12 18° 343° (NNW) 22:22:41 2401.200-2431.200
UWE-3 30 Jul 22:23:14 22:27:19 64° 77° (ENE) 22:31:30 435.000/436.395/437.385
HO-68 30 Jul 22:23:45 22:30:01 32° 263° (W) 22:36:10 435.675
FUNcube-1 30 Jul 22:25:38 22:29:36 47° 76° (ENE) 22:33:41 145.935
COMPASS 1 30 Jul 22:31:37 22:35:01 23° 264° (W) 22:38:20 437.405
CUBEBUG 2 30 Jul 22:35:21 22:39:27 64° 260° (W) 22:43:37 437.445
AISAT 30 Jul 22:40:44 22:41:00 10° 70° (ENE) 22:41:36 437.250
Oscar 11 30 Jul 22:41:07 22:45:21 55° 260° (W) 22:49:36 145.826/435.025
M-CUBED/EXP-1 PRIME 30 Jul 22:42:25 22:47:05 53° 104° (ESE) 22:51:35 437.505
UKube-1 30 Jul 22:43:34 22:46:32 19° 72° (ENE) 22:49:38 .
SEEDS 30 Jul 22:45:39 22:47:34 12° 268° (W) 22:49:15 437.485
HUMSAT D 30 Jul 23:03:15 23:07:14 54° 77° (ENE) 23:11:19 437.325/437.525
UNISAT 6 30 Jul 23:07:08 23:10:39 21° 95° (E) 23:14:19 437.425
DX 1 30 Jul 23:07:57 23:12:02 42° 75° (ENE) 23:16:10 434.975-435.025
DELFI C3 30 Jul 23:11:24 23:15:03 32° 262° (W) 23:18:42 145.870
AUBIESAT-1 30 Jul 23:13:20 23:18:04 78° 287° (WNW) 23:22:37 437.475
50 SAT 30 Jul 23:15:34 23:18:56 30° 74° (ENE) 23:22:24 437.505
VELOX 1 30 Jul 23:16:37 23:20:23 29° 74° (ENE) 23:24:13 145.980
ESTCUBE 1 30 Jul 23:22:13 23:25:42 23° 73° (ENE) 23:29:19 437.505/2401.250
AIST 1 30 Jul 23:27:30 23:29:41 14° 75° (ENE) 23:32:06
POPSAT HIP 1 30 Jul 23:39:27 23:41:59 16° 94° (E) 23:44:43 437.405
ZACube-1 30 Jul 23:40:47 23:43:36 17° 266° (W) 23:46:15 437.345
QB50P2 30 Jul 23:46:12 23:49:20 20° 96° (E) 23:52:35 145.880/145.840
TIGRISAT 30 Jul 23:50:10 23:54:52 69° 101° (E) 23:59:33 435.000
ANTELSAT 30 Jul 23:51:16 23:55:59 75° 102° (ESE) 00:00:41 437.575/2403.000
BEESAT 2 30 Jul 23:52:33 23:56:13 33° 112° (ESE) 23:59:57 435.950
BUGSAT 1 30 Jul 23:52:40 23:54:18 12° 93° (E) 23:56:12 437.445
PHONESAT 2.4 30 Jul 23:58:20 23:59:06 11° 359° (N) 23:59:52 2401.200-2431.200
Cosmos 2491 31 Jul 00:08:13 00:16:28 47° 79° (E) 00:24:48 435.465 / 435.565
VERMONT LUNAR 31 Jul 00:09:34 00:11:56 19° 20° (NNE) 00:14:19 437.305
DUCHIFAT 1 31 Jul 00:11:51 00:15:50 40° 99° (E) 00:19:51 145.980
AISAT 31 Jul 00:12:55 00:17:13 50° 260° (W) 00:21:30 437.250
QB50P1 31 Jul 00:13:50 00:17:55 45° 99° (E) 00:22:01 145.935-145.965
NANOSAT C BR1 31 Jul 00:15:41 00:19:47 47° 99° (E) 00:23:54 145.865
UKube-1 31 Jul 00:18:52 00:22:30 25° 263° (W) 00:26:04 .
M-CUBED/EXP-1 PRIME 31 Jul 00:19:09 00:21:24 13° 295° (WNW) 00:23:22 437.505
RS-15 31 Jul 00:20:54 00:29:39 25° 315° (NW) 00:38:11 29.354- 29.394
YUBILEINY 31 Jul 00:22:17 00:29:27 31° 88° (E) 00:36:56 435.215
CUBEBUG 1 31 Jul 00:31:54 00:36:13 58° 260° (W) 00:40:31 437.445
BEESAT 3 31 Jul 00:34:25 00:38:19 47° 299° (WNW) 00:42:17 437.485
UNISAT 6 31 Jul 00:43:24 00:47:23 27° 287° (WNW) 00:51:16 437.425
DX 1 31 Jul 00:47:12 00:48:31 11° 267° (W) 00:49:31 434.975-435.025
50 SAT 31 Jul 00:52:04 00:53:38 12° 267° (W) 00:54:58 437.505
VELOX 1 31 Jul 00:53:59 00:56:58 17° 265° (W) 00:59:47 145.980
POLYITAN 1 31 Jul 00:56:07 01:00:15 47° 284° (WNW) 01:04:22 437.675
ESTCUBE 1 31 Jul 00:58:49 01:02:29 23° 264° (W) 01:06:02 437.505/2401.250
AIST 1 31 Jul 01:03:44 01:07:25 29° 268° (W) 01:11:04
SPROUT 31 Jul 01:13:45 01:18:00 70° 259° (W) 01:22:15 437.525
POPSAT HIP 1 31 Jul 01:14:11 01:17:54 29° 286° (WNW) 01:21:33 437.405
AIST 2 31 Jul 01:14:41 01:18:51 65° 114° (ESE) 01:23:05 435.215
QB50P2 31 Jul 01:21:45 01:25:09 23° 287° (WNW) 01:28:27 145.880/145.840
BUGSAT 1 31 Jul 01:26:12 01:29:53 33° 285° (WNW) 01:33:34 437.445
BEESAT 31 Jul 01:28:44 01:30:53 13° 70° (ENE) 01:33:19 436.000
TISAT 1 31 Jul 01:31:33 01:35:43 71° 259° (WSW) 01:39:53 437.305
BEESAT 2 31 Jul 01:31:56 01:34:23 15° 306° (NW) 01:36:42 435.950
PHONESAT 2.4 31 Jul 01:35:41 01:38:01 17° 16° (NNE) 01:40:22 2401.200-2431.200
VERMONT LUNAR 31 Jul 01:45:45 01:48:51 59° 215° (SW) 01:51:55 437.305
SWISSCUBE 31 Jul 01:47:17 01:51:06 25° 72° (ENE) 01:55:02 437.505
DUCHIFAT 1 31 Jul 01:49:42 01:51:19 12° 289° (WNW) 01:52:42 145.980
QB50P1 31 Jul 01:52:28 01:53:26 10° 289° (WNW) 01:54:06 145.935-145.965
O/OREOS (USA 219) 31 Jul 01:54:21 01:58:32 42° 105° (ESE) 02:02:47 437.305
NANOSAT C BR1 31 Jul 01:54:55 01:55:16 10° 290° (WNW) 01:55:18 145.865
Cosmos 2491 31 Jul 02:05:53 02:13:01 28° 272° (W) 02:19:50 435.465 / 435.565
ITUPSAT 1 31 Jul 02:06:56 02:11:19 37° 74° (ENE) 02:15:44 437.325
YUBILEINY 31 Jul 02:17:56 02:26:05 42° 282° (WNW) 02:34:10 435.215
KKS-1 31 Jul 02:44:14 02:45:54 12° 70° (ENE) 02:47:51 437.445
ITAMSAT 1 31 Jul 02:46:41 02:49:23 15° 93° (E) 02:52:22 435.822/435.867
JUGNU 31 Jul 02:59:53 03:03:50 18° 163° (SSE) 03:07:51 437.505
BEESAT 31 Jul 03:03:47 03:08:23 46° 261° (W) 03:12:59 436.000
Oscar 19 31 Jul 03:05:59 03:11:08 69° 285° (WNW) 03:16:17 437.125/150
PHONESAT 2.4 31 Jul 03:12:54 03:16:23 75° 31° (NNE) 03:19:50 2401.200-2431.200
SWISSCUBE 31 Jul 03:24:57 03:28:52 24° 264° (W) 03:32:41 437.505
Cosmos 2504 31 Jul 03:25:47 03:32:36 61° 92° (E) 03:39:51 435.465 / 435.565
JAS-2 31 Jul 03:30:00 03:35:56 24° 92° (E) 03:42:00 435.910
O/OREOS (USA 219) 31 Jul 03:36:16 03:38:14 12° 299° (WNW) 03:39:57 437.305
ITUPSAT 1 31 Jul 03:46:16 03:49:20 16° 266° (W) 03:52:08 437.325
Gurwin Techsat 1B 31 Jul 03:53:54 03:59:14 84° 283° (WNW) 04:04:32 435.225
STARS 31 Jul 03:54:30 03:58:43 52° 76° (ENE) 04:02:59 437.465
KKS-1 31 Jul 04:18:02 04:22:13 41° 261° (W) 04:26:24 437.445
ITAMSAT 1 31 Jul 04:24:12 04:29:08 45° 286° (WNW) 04:34:01 435.822/435.867
JUGNU 31 Jul 04:47:13 04:52:26 32° 172° (S) 04:57:40 437.505
SRMSAT 31 Jul 04:49:08 04:53:03 18° 163° (SSE) 04:57:04 437.500
ISS 31 Jul 04:50:08 04:51:37 13° 36° (NE) 04:53:12 145.825
PHONESAT 2.4 31 Jul 04:52:35 04:54:04 12° 221° (SW) 04:55:25 2401.200-2431.200
MOZHAYETS 4 31 Jul 04:58:45 05:03:11 49° 76° (ENE) 05:07:41
DANDE 31 Jul 05:01:11 05:04:54 36° 98° (E) 05:07:52 436.750
RS-15 31 Jul 05:09:03 05:09:32 10° 28° (NNE) 05:10:55 29.354- 29.394
JAS-2 31 Jul 05:13:36 05:21:16 56° 287° (WNW) 05:28:38 435.910
AO-7 31 Jul 05:14:39 05:22:55 67° 104° (ESE) 05:31:09 29.400- 29.500
Cosmos 2504 31 Jul 05:21:04 05:25:31 16° 290° (WNW) 05:29:38 435.465 / 435.565
HORYU 2 31 Jul 05:21:47 05:26:18 84° 283° (WNW) 05:30:47 437.375
CUSAT 1 31 Jul 05:31:12 05:34:16 31° 278° (W) 05:36:50 437.405
ISS 31 Jul 06:25:07 06:28:14 42° 230° (SW) 06:31:18 145.825
Cubesat XI-IV 31 Jul 06:28:09 06:29:53 12° 92° (E) 06:32:01 437.490
JUGNU 31 Jul 06:35:40 06:41:07 38° 181° (S) 06:46:31 437.505
SRMSAT 31 Jul 06:36:37 06:41:49 32° 172° (S) 06:47:02 437.500
MOZHAYETS 4 31 Jul 06:39:25 06:40:43 11° 269° (W) 06:41:40
CUBESAT XI-V 31 Jul 06:49:08 06:53:46 63° 77° (ENE) 06:58:24 437.345
STRAND 1 31 Jul 06:50:25 06:53:47 19° 70° (ENE) 06:57:22 437.568
PRISM 31 Jul 06:53:25 06:55:00 12° 71° (ENE) 06:56:51 437.425
GONETS M04 31 Jul 06:58:13 07:06:56 78° 94° (E) 07:15:37
AO-7 31 Jul 07:09:06 07:15:09 22° 297° (WNW) 07:20:48 29.400- 29.500
CUTE-I 31 Jul 07:21:35 07:26:42 49° 100° (E) 07:31:49 437.470
